Regional Weather Roundup
Issued by NWS

Home | Current Version | Previous Version | Graphics & Text | Print | Product List | Glossary Off
Versions: 1 2 3 4 5 6 7 8 9 10 11 12 13 14 15 16 17 18 19 20 21 22 23 24 25 26 27 28 29 30 31 32 33 34 35 36 37 38 39 40 41 42 43 44 45 46 47 48 49 50

000
ASUS43 KMKX 250120
RWRWI

WISCONSIN REGIONAL WEATHER ROUNDUP
NATIONAL WEATHER SERVICE MILWAUKEE/SULLIVAN WI
800 PM CDT THU JUL 24 2014

NOTE: "FAIR" INDICATES FEW OR NO CLOUDS BELOW 12,000 FEET WITH NO
SIGNIFICANT WEATHER AND/OR OBSTRUCTIONS TO VISIBILITY.

WIZ001-002-006>008-014>016-023>028-250200-
NORTHWEST WISCONSIN

CITY           SKY/WX    TMP DP  RH WIND       PRES   REMARKS
SUPERIOR ARPT  MOCLDY    63  56  76 E5        29.95R
ASHLAND        CLOUDY    67  61  81 NW3       29.96S
HAYWARD        CLOUDY    71  59  65 CALM      29.97R
SIREN          PTCLDY    74  58  56 S6        29.95S
RICE LAKE      MOCLDY    72  57  60 SE6       29.97F
LADYSMITH      MOCLDY    72  58  62 SE3       29.99S
EAU CLAIRE     MOCLDY    75  57  53 SE10      29.95R
MENOMONIE      MOCLDY    72  59  64 SE6       29.95F
NEW RICHMOND   PTCLDY    73  58  57 S7        29.94F
OSCEOLA        PTCLDY    74  60  61 SE6       29.96F
$$

WIZ003>005-009-010-017-018-250200-
NORTH CENTRAL WISCONSIN

CITY           SKY/WX    TMP DP  RH WIND       PRES   REMARKS
WOODRUFF       MOCLDY    69  53  56 CALM      30.00F
RHINELANDER    MOCLDY    67  55  65 S3        30.01F
EAGLE RIVER    PTCLDY    66  52  59 CALM      30.00F
LAND O LAKES   PTCLDY    67  53  60 CALM      30.01F
PHILLIPS       PTCLDY    68  56  64 S5        29.99S
TOMAHAWK       CLOUDY    63  56  80 CALM      30.01F
MEDFORD        CLOUDY    66  56  70 SE3       30.00F
MERRILL        CLOUDY    69  55  60 S3        30.00F
$$

WIZ029-030-035-036-043>047-250200-
CENTRAL WISCONSIN

CITY           SKY/WX    TMP DP  RH WIND       PRES   REMARKS
WAUSAU         CLOUDY    72  51  47 S5        29.99F
MOSINEE        CLEAR     70  57  64 VRB3      30.01F
MARSHFIELD     CLOUDY    71  59  65 S5        29.99F
STEVENS POINT  CLOUDY    72  52  49 CALM      30.01F
WAUPACA        CLOUDY    73  56  54 SE3       30.00F
WAUTOMA        CLOUDY    73  54  51 S5        30.01F
WISC RAPIDS    CLOUDY    73  54  51 S6        30.00F
CAMP DOUGLAS   MOCLDY    72  61  68 SE2       29.99F
$$

WIZ011>013-019>022-031-037>040-048>050-250200-
NORTHEAST WISCONSIN

CITY           SKY/WX    TMP DP  RH WIND       PRES   REMARKS
ANTIGO         MOCLDY    64  57  80 S3        30.03S
STURGEON BAY   CLEAR     61  43  51 S10       30.03F
GREEN BAY      PTCLDY    69  50  50 S10       30.02F
MANITOWOC      CLEAR     63  46  54 S10       30.05F
APPLETON       MOCLDY    70  54  56 S6        30.03F
CLINTONVILLE   MOCLDY    70  54  56 S3        30.01S
OSHKOSH        MOCLDY    68  57  68 S6        30.02F
$$

WIZ032>034-041-042-053>061-250200-
SOUTHWEST WISCONSIN

CITY           SKY/WX    TMP DP  RH WIND       PRES   REMARKS
LA CROSSE      CLOUDY    77  59  53 SE9       29.93
SPARTA         CLOUDY    72  57  59 SE6       29.97F
VIROQUA        FAIR      71  58  64 SE8       29.99F
BOSCOBEL       CLOUDY    75  58  55 S6        29.99F
PRAIRIE DU CHI CLOUDY    73  57  56 S6        29.97F
PLATTEVILLE    FAIR      71  58  64 S7        30.03F
$$

WIZ056-057-062-063-064-067-068-250200-
SOUTH CENTRAL WISCONSIN

CITY           SKY/WX    TMP DP  RH WIND       PRES   REMARKS
BARABOO/DELLS  CLOUDY    70  56  60 S5        30.01F
LONE ROCK      CLOUDY    75  61  61 SE3       30.00F
WATERTOWN      MOCLDY    69  55  60 S3        30.04F
MADISON        MOCLDY    75  55  49 S7        30.03F
MIDDLETON      FAIR      73  54  50 SW5       30.03F
MONROE         CLOUDY    70  59  68 S6        30.05F
JANESVILLE     NOT AVBL
$$

WIZ051-052-058>065-066-070>072-250200-
SOUTHEAST WISCONSIN

CITY           SKY/WX    TMP DP  RH WIND       PRES   REMARKS
MILWAUKEE      MOCLDY    65  44  46 S6        30.08F
WAUKESHA       MOCLDY    72  46  40 SE7       30.07F
MILWAUKEE/TIMM CLEAR     68  37  32 SE7       30.08F
RACINE         CLEAR     65  46  50 S7        30.09F
BURLINGTON     CLEAR     64  47  54 SE5       30.08S
KENOSHA        PTCLDY    64  46  52 SE7       30.09S
FOND DU LAC    MOCLDY    68  50  52 SE13      30.03F
SHEBOYGAN      CLEAR     63  47  55 S5        30.06F
WEST BEND      MOCLDY    63  43  48 SE5       30.06F
JUNEAU         MOCLDY    70  50  48 S7        30.05F
$$

LSZ147-162-250200-
LAKE SUPERIOR

STATION/POSITION TIME  TEMP    WIND        PRES    WAVE
                       AIR SEA DIR/SP/G            HT/PER
                 (UTC) (F)     (DEG/KT/KT) (MB)    (FT/S)
$$

LMZ867-665-643>646-250200-
LAKE MICHIGAN

STATION/POSITION TIME  TEMP    WIND        PRES    WAVE
                       AIR SEA DIR/SP/G            HT/PER
                 (UTC) (F)     (DEG/KT/KT) (MB)    (FT/S)
$$

TC  - TEMPERATURE IN CELSIUS
VSB - VISIBILITY IN STATUTE MILES
WCI - WIND CHILL INDEX
HX  - HEAT INDEX




USA.gov is the U.S. government's official web portal to all federal, state and local government web resources and services.